Location: Daouli
(14.8671°N, 3.2030°W)
Time: 02:18:34
(UTC+00:00)

Cosmos 1980 Rocket - Pass Details

Date: 29 October 2020
Orbit: 831 x 848 km, 71.0° (Epoch: 02 December)

Event Time Altitude Azimuth Distance (km) Brightness Sun altitude
Rises 19:03:39 0° 217° (SW) 3,387 6.1 -19.4°
Reaches altitude 10° 19:06:20 10° 227° (SW) 2,450 5.4 -20.0°
Maximum altitude 19:11:17 32° 289° (WNW) 1,411 3.9 -21.2°
Drops below altitude 10° 19:16:13 10° 351° (N) 2,442 4.6 -22.4°
Sets 19:18:55 0° 1° (N) 3,373 5.2 -23.0°
